カタログに戻る

STARLINK-4519

運用中通信VLEO
NORAD 53439·PAYLOAD·🇺🇸 United States

打ち上げ Aug 10, 2022 から Cape Canaveral Space Force Station

Loading…

次のパス (今後24時間)

TLE

最新Source: CelesTrak SupGP

元期: Sep 15, 2026, 02:12 UTC

1 53439C 22097BD  26258.09215278  .00041191  00000+0  12170-2 0  2587
2 53439  53.1590 318.6990 0001275  79.4340 301.8858 15.34370088    10

AllMySatでSTARLINK-4519をリアルタイム追跡

Download on the App Store